TimeEDT,TemperatureF,Dew PointF,Humidity,Sea Level PressureIn,VisibilityMPH,Wind Direction,Wind SpeedMPH,Gust SpeedMPH,PrecipitationIn,Events,Conditions,WindDirDegrees,DateUTC
12:53 AM,73.9,71.1,91,30.20,10.0,Calm,Calm,-,N/A,,Clear,0,2013-07-03 04:53:00
1:53 AM,73.0,71.1,93,30.20,10.0,SSE,3.5,-,N/A,,Clear,160,2013-07-03 05:53:00
2:36 AM,73.4,71.6,94,30.19,10.0,Calm,Calm,-,N/A,,Mostly Cloudy,0,2013-07-03 06:36:00
2:50 AM,73.4,71.6,94,30.19,9.0,SSE,4.6,-,N/A,,Overcast,150,2013-07-03 06:50:00
2:53 AM,73.9,72.0,93,30.18,9.0,SE,3.5,-,N/A,,Overcast,140,2013-07-03 06:53:00
3:53 AM,75.0,73.0,94,30.18,9.0,SSE,4.6,-,N/A,,Overcast,160,2013-07-03 07:53:00
4:53 AM,75.0,73.0,94,30.19,9.0,South,6.9,-,N/A,,Overcast,170,2013-07-03 08:53:00
5:53 AM,75.0,73.0,94,30.20,9.0,South,6.9,-,N/A,,Overcast,170,2013-07-03 09:53:00
6:53 AM,75.0,73.0,94,30.22,6.0,South,4.6,-,N/A,,Overcast,170,2013-07-03 10:53:00
7:53 AM,75.9,73.0,91,30.24,6.0,South,8.1,-,N/A,,Overcast,180,2013-07-03 11:53:00
8:53 AM,77.0,73.9,90,30.26,6.0,South,4.6,-,0.00,,Overcast,190,2013-07-03 12:53:00
9:50 AM,78.8,73.4,83,30.27,8.0,SSW,8.1,-,0.01,,Overcast,200,2013-07-03 13:50:00
9:53 AM,79.0,73.9,84,30.26,8.0,SSW,5.8,-,0.01,,Overcast,200,2013-07-03 13:53:00
10:40 AM,80.6,75.2,84,30.26,10.0,Calm,Calm,-,N/A,,Mostly Cloudy,0,2013-07-03 14:40:00
10:48 AM,82.4,75.2,79,30.26,10.0,SSE,6.9,-,N/A,,Mostly Cloudy,160,2013-07-03 14:48:00
10:53 AM,82.9,75.0,77,30.25,10.0,Variable,4.6,-,N/A,,Mostly Cloudy,0,2013-07-03 14:53:00
11:53 AM,86.0,75.0,70,30.25,10.0,Variable,3.5,-,N/A,,Partly Cloudy,0,2013-07-03 15:53:00
12:53 PM,84.0,73.0,69,30.24,10.0,Variable,5.8,-,N/A,,Scattered Clouds,0,2013-07-03 16:53:00
1:10 PM,82.4,73.4,74,30.24,10.0,SSE,6.9,-,N/A,Thunderstorm,Scattered Clouds,150,2013-07-03 17:10:00
1:49 PM,80.6,73.4,79,30.26,10.0,WNW,8.1,-,N/A,,Scattered Clouds,290,2013-07-03 17:49:00
1:53 PM,79.0,73.0,82,30.25,10.0,WNW,9.2,-,N/A,,Mostly Cloudy,290,2013-07-03 17:53:00
2:04 PM,78.8,73.4,83,30.25,10.0,WNW,3.5,-,N/A,,Mostly Cloudy,290,2013-07-03 18:04:00
2:28 PM,80.6,73.4,79,30.24,10.0,Calm,Calm,-,0.00,Rain,Light Rain,0,2013-07-03 18:28:00
2:53 PM,82.9,75.0,77,30.23,10.0,South,8.1,-,0.00,,Mostly Cloudy,190,2013-07-03 18:53:00
3:53 PM,82.9,73.0,72,30.23,10.0,SSE,4.6,-,N/A,,Mostly Cloudy,160,2013-07-03 19:53:00
4:53 PM,84.9,73.9,69,30.21,10.0,SSW,4.6,-,N/A,,Partly Cloudy,200,2013-07-03 20:53:00
5:27 PM,82.4,73.4,74,30.22,10.0,South,6.9,-,0.00,Rain-Thunderstorm,Light Rain,190,2013-07-03 21:27:00
5:42 PM,78.8,75.2,89,30.22,3.0,SE,6.9,-,0.06,Rain,Light Rain,140,2013-07-03 21:42:00
5:53 PM,78.1,73.9,87,30.22,10.0,SSE,4.6,-,0.06,Rain,Light Rain,150,2013-07-03 21:53:00
6:53 PM,78.1,73.9,87,30.24,10.0,Calm,Calm,-,0.00,,Scattered Clouds,0,2013-07-03 22:53:00
7:12 PM,77.0,73.4,89,30.25,1.8,SSE,6.9,-,0.09,Rain,Heavy Rain,160,2013-07-03 23:12:00
7:20 PM,75.2,73.4,94,30.25,4.0,South,4.6,-,0.10,Rain,Light Rain,180,2013-07-03 23:20:00
7:53 PM,75.9,73.9,94,30.24,10.0,South,3.5,-,0.10,,Mostly Cloudy,180,2013-07-03 23:53:00
8:53 PM,75.0,73.0,94,30.26,10.0,Calm,Calm,-,N/A,,Partly Cloudy,0,2013-07-04 00:53:00
9:40 PM,73.4,71.6,94,30.26,1.8,Calm,Calm,-,N/A,,Clear,0,2013-07-04 01:40:00
9:53 PM,73.0,72.0,96,30.26,2.0,Calm,Calm,-,N/A,,Clear,0,2013-07-04 01:53:00
10:03 PM,73.4,71.6,94,30.27,3.0,Calm,Calm,-,N/A,,Clear,0,2013-07-04 02:03:00
10:53 PM,73.9,72.0,93,30.26,9.0,Calm,Calm,-,N/A,,Clear,0,2013-07-04 02:53:00
11:53 PM,73.9,72.0,93,30.27,10.0,Calm,Calm,-,N/A,,Clear,0,2013-07-04 03:53:00